Find Starlink 31631

NORAD ID: 59459 Int'l Des: 2024-068 Owner: SPXS Country: US Constellation: starlink operational
LEOCIRCULAR

現在のビュー

3D地球を読み込み中...

About Starlink 31631

Starlink 31631 (NORAD 59459) is a starlink constellation satellite (v2 mini) launched Apr 10, 2024 by SPXS of US. It operates in LEO, CIRCULAR orbit with a mass of 730.00 kg.

Starlink 31631について

説明を読み込み中...

次回通過

Passes for default location (London). Set your location on the main map for personalized predictions.

高度履歴

Loading altitude history...

軌道要素

1 59459U 24068E 26169.43422788 .00000441 00000-0 25564-4 0 9999
2 59459 43.0025 181.8217 0001690 271.9132 88.1526 15.27575547123977
Epoch: Jun 18, 2026 • Age: 21 hours

現在のステータス

高度 487.2 km
速度 7.63 km/s
衛星直下点 42.61°N, 98.15°W
打ち上げ日 Apr 10, 2024
運用期間 2.1 years
タイプ internet

技術仕様

分類 Payload
質量 730.00 kg
乾燥質量 700.00 kg
総質量 730.00 kg
長さ 0.30 m
直径 4.10 m
スパン 29.00 m
形状 Box + pan
製造者 SPXS
バスタイプ Starlink V2M
フェーズステータス In Orbit
所有者/国 SPXS/US

Most Searched